Flag for Germany Weather past 2 weeks in Strausberg, Brandenburg, Germany

Now
63 °F

Broken clouds.


Feels Like: 63 °F
Forecast: 53 / 67 °F
Wind: 15 mph from Northwest

Location: Berlin-Schoenefeld

Current Time: Sep 1, 2015 at 8:47:10 PM

Latest Report: Sep 1, 2015 at 8:20 PM


Visibility: N/A

Pressure: 29.80 "Hg

Humidity: 88%

Dew point: 59 °F

Location of StrausbergLocation

Historic Weather in Strausberg — Graph

°F

Strausberg temperature yesterday

Maximum temperature yesterday: 95 °F (at 3:20 PM)
Minimum temperature yesterday: 64 °F (at 4:50 AM)
Average temperature yesterday: 80 °F

Past Weeks' High & Low Weather Summary

 TemperatureHumidityPressure
High95 °F (Aug 31, 3:20 PM)100% (Aug 20, 12:20 AM)30.30 "Hg (Aug 20, 12:20 AM)
Low52 °F (Aug 22, 6:20 AM)21% (Aug 22, 3:50 PM)29.68 "Hg (Sep 1, 4:50 PM)
Average69 °F64%30.00 "Hg
* Reported Aug 17 7:20 PM — Sep 1 7:50 PM, Strausberg, Weather by CustomWeather, © 2015

Note: Actual official high and low records may vary slightly from our data, if they occured in-between our weather recording intervals... More about our weather records

Advertising

Strausberg weather history for previous 24 hours

 ConditionsComfort  
Time TempWeatherWind HumidityBarometerVisibility
7:50 PM
Tue, Sep 1
63 °FSprinkles. Broken clouds.21 mph88%29.80 "HgN/A
7:20 PM66 °FSprinkles. Broken clouds.15 mph88%29.77 "HgN/A
6:50 PM66 °FThunderstorms. Broken clouds.17 mph94%29.77 "HgN/A
6:20 PM70 °FThunderstorms. Partly sunny.23 mph78%29.74 "HgN/A
5:20 PM82 °FPassing clouds.10 mph51%29.68 "HgN/A
4:50 PM84 °FPassing clouds.8 mph48%29.68 "HgN/A
4:20 PM84 °FPassing clouds.6 mph48%29.71 "HgN/A
3:50 PM84 °FPassing clouds.10 mph48%29.71 "HgN/A
3:20 PM84 °FPassing clouds.9 mph48%29.71 "HgN/A
2:50 PM82 °FPassing clouds.9 mph48%29.71 "HgN/A
2:20 PM82 °FPassing clouds.10 mph51%29.74 "HgN/A
1:50 PM82 °FPassing clouds.5 mph55%29.74 "HgN/A
1:20 PM82 °FPassing clouds.7 mph51%29.74 "HgN/A
12:50 PM81 °FPassing clouds.9 mph54%29.74 "HgN/A
12:20 PM81 °FPassing clouds.8 mph54%29.74 "HgN/A
11:50 AM79 °FPassing clouds.9 mph61%29.77 "HgN/A
11:20 AM79 °FPassing clouds.10 mph58%29.74 "HgN/A
10:50 AM79 °FSunny.13 mph58%29.74 "Hg10 mi
10:20 AM77 °FSunny.13 mph61%29.77 "Hg10 mi
9:50 AM77 °FSunny.10 mph65%29.77 "Hg10 mi
9:20 AM75 °FSunny.14 mph65%29.74 "Hg10 mi
8:50 AM73 °FPassing clouds.10 mph74%29.74 "HgN/A
8:20 AM72 °FSunny.8 mph73%29.74 "Hg10 mi
7:50 AM70 °FSunny.8 mph78%29.74 "Hg10 mi
7:20 AM68 °FSunny.7 mph83%29.74 "Hg10 mi
6:50 AM66 °FClear.6 mph88%29.74 "Hg10 mi
5:20 AM70 °FPassing clouds.3 mph83%29.71 "HgN/A
4:50 AM68 °FClear.3 mph88%29.71 "Hg10 mi
4:20 AM68 °FPassing clouds.3 mph88%29.74 "HgN/A
3:50 AM70 °FPassing clouds.5 mph88%29.71 "HgN/A
3:20 AM72 °FClear.3 mph78%29.71 "Hg10 mi
2:50 AM72 °FClear.2 mph78%29.71 "Hg10 mi
2:20 AM73 °FPassing clouds.1 mph69%29.71 "HgN/A
1:50 AM77 °FThundershowers. Passing clouds.2 mph65%29.74 "HgN/A
1:20 AM79 °FThunderstorms. Partly cloudy.16 mph61%29.74 "HgN/A
12:50 AM75 °FClear.1 mph74%29.74 "Hg10 mi
12:20 AM77 °FClear.2 mph69%29.74 "Hg10 mi
11:20 PM
Mon, Aug 31
79 °FClear.2 mph61%29.74 "Hg10 mi
10:50 PM79 °FClear.2 mph61%29.74 "Hg10 mi
10:20 PM79 °FClear.5 mph61%29.74 "Hg10 mi
9:50 PM81 °FClear.3 mph58%29.77 "Hg10 mi
9:20 PM82 °FClear.3 mph55%29.77 "Hg10 mi
8:50 PM82 °FSunny.2 mph51%29.77 "Hg10 mi
8:20 PM86 °FSunny.2 mph46%29.77 "Hg10 mi
Weather by CustomWeather, © 2015

See weather overviewHow to use our weather pages